Year,Month,Day,Hour,Minute,Value (Times are PST for temperature in C)
2016,09,22,00,00,10.80
2016,09,22,00,01,10.90
2016,09,22,00,02,10.90
2016,09,22,00,03,10.90
2016,09,22,00,04,10.90
2016,09,22,00,05,11.00
2016,09,22,00,06,11.00
2016,09,22,00,07,11.00
2016,09,22,00,08,11.00
2016,09,22,00,09,11.00
2016,09,22,00,10,11.00
2016,09,22,00,11,11.10
2016,09,22,00,12,11.10
2016,09,22,00,13,11.10
2016,09,22,00,14,11.10
2016,09,22,00,15,11.20
2016,09,22,00,16,11.30
2016,09,22,00,17,11.40
2016,09,22,00,18,11.60
2016,09,22,00,19,11.60
2016,09,22,00,20,11.70
2016,09,22,00,21,11.70
2016,09,22,00,22,11.60
2016,09,22,00,23,11.60
2016,09,22,00,24,11.60
2016,09,22,00,25,11.50
2016,09,22,00,26,11.50
2016,09,22,00,27,11.40
2016,09,22,00,28,11.30
2016,09,22,00,29,11.30
2016,09,22,00,30,11.20
2016,09,22,00,31,11.20
2016,09,22,00,32,11.10
2016,09,22,00,33,11.10
2016,09,22,00,34,11.10
2016,09,22,00,35,11.10
2016,09,22,00,36,11.00
2016,09,22,00,37,11.00
2016,09,22,00,38,11.00
2016,09,22,00,39,11.00
2016,09,22,00,40,11.00
2016,09,22,00,41,11.10
2016,09,22,00,42,11.10
2016,09,22,00,43,11.10
2016,09,22,00,44,11.20
2016,09,22,00,45,11.20
2016,09,22,00,46,11.10
2016,09,22,00,47,11.20
2016,09,22,00,48,11.30
2016,09,22,00,49,11.40
2016,09,22,00,50,11.50
2016,09,22,00,51,11.60
2016,09,22,00,52,11.60
2016,09,22,00,53,11.70
2016,09,22,00,54,11.70
2016,09,22,00,55,11.80
2016,09,22,00,56,11.80
2016,09,22,00,57,11.80
2016,09,22,00,58,11.80
2016,09,22,00,59,11.80
2016,09,22,01,00,11.80
2016,09,22,01,01,11.70
2016,09,22,01,02,11.70
2016,09,22,01,03,11.70
2016,09,22,01,04,11.80
2016,09,22,01,05,11.90
2016,09,22,01,06,11.90
2016,09,22,01,07,11.90
2016,09,22,01,08,12.00
2016,09,22,01,09,12.10
2016,09,22,01,10,12.10
2016,09,22,01,11,12.20
2016,09,22,01,12,12.20
2016,09,22,01,13,12.30
2016,09,22,01,14,12.30
2016,09,22,01,15,12.20
2016,09,22,01,16,12.20
2016,09,22,01,17,12.10
2016,09,22,01,18,12.00
2016,09,22,01,19,12.00
2016,09,22,01,20,12.10
2016,09,22,01,21,12.20
2016,09,22,01,22,12.20
2016,09,22,01,23,12.20
2016,09,22,01,24,12.20
2016,09,22,01,25,12.20
2016,09,22,01,26,12.20
2016,09,22,01,27,12.20
2016,09,22,01,28,12.10
2016,09,22,01,29,12.10
2016,09,22,01,30,12.10
2016,09,22,01,31,12.10
2016,09,22,01,32,12.10
2016,09,22,01,33,12.10
2016,09,22,01,34,12.00
2016,09,22,01,35,12.00
2016,09,22,01,36,12.00
2016,09,22,01,37,11.90
2016,09,22,01,38,11.90
2016,09,22,01,39,11.80
2016,09,22,01,40,11.70
2016,09,22,01,41,11.60
2016,09,22,01,42,11.50
2016,09,22,01,43,11.40
2016,09,22,01,44,11.30
2016,09,22,01,45,11.10
2016,09,22,01,46,11.10
2016,09,22,01,47,11.00
2016,09,22,01,48,10.90
2016,09,22,01,49,10.90
2016,09,22,01,50,10.80
2016,09,22,01,51,10.80
2016,09,22,01,52,10.70
2016,09,22,01,53,10.80
2016,09,22,01,54,10.80
2016,09,22,01,55,10.80
2016,09,22,01,56,10.80
2016,09,22,01,57,10.80
2016,09,22,01,58,10.80
2016,09,22,01,59,10.80
2016,09,22,02,00,10.90
2016,09,22,02,01,10.90
2016,09,22,02,02,10.90
2016,09,22,02,03,10.80
2016,09,22,02,04,10.80
2016,09,22,02,05,10.80
2016,09,22,02,06,10.80
2016,09,22,02,07,10.70
2016,09,22,02,08,10.70
2016,09,22,02,09,10.70
2016,09,22,02,10,10.60
2016,09,22,02,11,10.60
2016,09,22,02,12,10.60
2016,09,22,02,13,10.50
2016,09,22,02,14,10.50
2016,09,22,02,15,10.50
2016,09,22,02,16,10.50
2016,09,22,02,17,10.50
2016,09,22,02,18,10.40
2016,09,22,02,19,10.40
2016,09,22,02,20,10.40
2016,09,22,02,21,10.40
2016,09,22,02,22,10.40
2016,09,22,02,23,10.40
2016,09,22,02,24,10.50
2016,09,22,02,25,10.60
2016,09,22,02,26,10.60
2016,09,22,02,27,10.70
2016,09,22,02,28,10.70
2016,09,22,02,29,10.70
2016,09,22,02,30,10.60
2016,09,22,02,31,10.60
2016,09,22,02,32,10.50
2016,09,22,02,33,10.50
2016,09,22,02,34,10.40
2016,09,22,02,35,10.40
2016,09,22,02,36,10.40
2016,09,22,02,37,10.40
2016,09,22,02,38,10.30
2016,09,22,02,39,10.30
2016,09,22,02,40,10.30
2016,09,22,02,41,10.30
2016,09,22,02,42,10.30
2016,09,22,02,43,10.30
2016,09,22,02,44,10.20
2016,09,22,02,45,10.20
2016,09,22,02,46,10.20
2016,09,22,02,47,10.20
2016,09,22,02,48,10.10
2016,09,22,02,49,10.10
2016,09,22,02,50,10.10
2016,09,22,02,51,10.00
2016,09,22,02,52,10.00
2016,09,22,02,53,10.00
2016,09,22,02,54,10.00
2016,09,22,02,55,10.00
2016,09,22,02,56,9.90
2016,09,22,02,57,9.90
2016,09,22,02,58,9.90
2016,09,22,02,59,9.90
2016,09,22,03,00,9.90
2016,09,22,03,01,9.90
2016,09,22,03,02,9.90
2016,09,22,03,03,9.80
2016,09,22,03,04,9.80
2016,09,22,03,05,9.80
2016,09,22,03,06,9.80
2016,09,22,03,07,9.90
2016,09,22,03,08,9.90
2016,09,22,03,09,9.90
2016,09,22,03,10,9.90
2016,09,22,03,11,9.90
2016,09,22,03,12,9.90
2016,09,22,03,13,9.80
2016,09,22,03,14,9.80
2016,09,22,03,15,9.80
2016,09,22,03,16,9.70
2016,09,22,03,17,9.70
2016,09,22,03,18,9.70
2016,09,22,03,19,9.70
2016,09,22,03,20,9.60
2016,09,22,03,21,9.60
2016,09,22,03,22,9.60
2016,09,22,03,23,9.50
2016,09,22,03,24,9.50
2016,09,22,03,25,9.50
2016,09,22,03,26,9.40
2016,09,22,03,27,9.40
2016,09,22,03,28,9.30
2016,09,22,03,29,9.30
2016,09,22,03,30,9.20
2016,09,22,03,31,9.20
2016,09,22,03,32,9.20
2016,09,22,03,33,9.10
2016,09,22,03,34,9.10
2016,09,22,03,35,9.10
2016,09,22,03,36,9.00
2016,09,22,03,37,9.00
2016,09,22,03,38,9.00
2016,09,22,03,39,8.90
2016,09,22,03,40,8.90
2016,09,22,03,41,8.90
2016,09,22,03,42,8.80
2016,09,22,03,43,8.80
2016,09,22,03,44,8.80
2016,09,22,03,45,8.80
2016,09,22,03,46,8.70
2016,09,22,03,47,8.70
2016,09,22,03,48,8.70
2016,09,22,03,49,8.60
2016,09,22,03,50,8.60
2016,09,22,03,51,8.60
2016,09,22,03,52,8.50
2016,09,22,03,53,8.50
2016,09,22,03,54,8.50
2016,09,22,03,55,8.50
2016,09,22,03,56,8.40
2016,09,22,03,57,8.40
2016,09,22,03,58,8.40
2016,09,22,03,59,8.40
2016,09,22,04,00,8.40
2016,09,22,04,01,8.40
2016,09,22,04,02,8.40
2016,09,22,04,03,8.40
2016,09,22,04,04,8.40
2016,09,22,04,05,8.40
2016,09,22,04,06,8.40
2016,09,22,04,07,8.40
2016,09,22,04,08,8.40
2016,09,22,04,09,8.40
2016,09,22,04,10,8.40
2016,09,22,04,11,8.40
2016,09,22,04,12,8.30
2016,09,22,04,13,8.30
2016,09,22,04,14,8.30
2016,09,22,04,15,8.30
2016,09,22,04,16,8.30
2016,09,22,04,17,8.30
2016,09,22,04,18,8.30
2016,09,22,04,19,8.30
2016,09,22,04,20,8.30
2016,09,22,04,21,8.20
2016,09,22,04,22,8.20
2016,09,22,04,23,8.20
2016,09,22,04,24,8.20
2016,09,22,04,25,8.20
2016,09,22,04,26,8.20
2016,09,22,04,27,8.20
2016,09,22,04,28,8.10
2016,09,22,04,29,8.10
2016,09,22,04,30,8.10
2016,09,22,04,31,8.10
2016,09,22,04,32,8.00
2016,09,22,04,33,8.00
2016,09,22,04,34,8.10
2016,09,22,04,35,8.10
2016,09,22,04,36,8.10
2016,09,22,04,37,8.10
2016,09,22,04,38,8.10
2016,09,22,04,39,8.10
2016,09,22,04,40,8.10
2016,09,22,04,41,8.00
2016,09,22,04,42,8.00
2016,09,22,04,43,8.00
2016,09,22,04,44,8.00
2016,09,22,04,45,7.90
2016,09,22,04,46,7.90
2016,09,22,04,47,7.90
2016,09,22,04,48,7.90
2016,09,22,04,49,7.90
2016,09,22,04,50,7.90
2016,09,22,04,51,7.90
2016,09,22,04,52,7.80
2016,09,22,04,53,7.80
2016,09,22,04,54,7.80
2016,09,22,04,55,7.80
2016,09,22,04,56,7.80
2016,09,22,04,57,7.80
2016,09,22,04,58,7.70
2016,09,22,04,59,7.70
2016,09,22,05,00,7.70
2016,09,22,05,01,7.70
2016,09,22,05,02,7.70
2016,09,22,05,03,7.60
2016,09,22,05,04,7.60
2016,09,22,05,05,7.60
2016,09,22,05,06,7.60
2016,09,22,05,07,7.60
2016,09,22,05,08,7.60
2016,09,22,05,09,7.60
2016,09,22,05,10,7.60
2016,09,22,05,11,7.60
2016,09,22,05,12,7.60
2016,09,22,05,13,7.60
2016,09,22,05,14,7.60
2016,09,22,05,15,7.60
2016,09,22,05,16,7.60
2016,09,22,05,17,7.60
2016,09,22,05,18,7.60
2016,09,22,05,19,7.60
2016,09,22,05,20,7.70
2016,09,22,05,21,7.60
2016,09,22,05,22,7.60
2016,09,22,05,23,7.60
2016,09,22,05,24,7.60
2016,09,22,05,25,7.60
2016,09,22,05,26,7.60
2016,09,22,05,27,7.60
2016,09,22,05,28,7.60
2016,09,22,05,29,7.60
2016,09,22,05,30,7.50
2016,09,22,05,31,7.50
2016,09,22,05,32,7.50
2016,09,22,05,33,7.40
2016,09,22,05,34,7.40
2016,09,22,05,35,7.40
2016,09,22,05,36,7.30
2016,09,22,05,37,7.30
2016,09,22,05,38,7.30
2016,09,22,05,39,7.30
2016,09,22,05,40,7.30
2016,09,22,05,41,7.30
2016,09,22,05,42,7.30
2016,09,22,05,43,7.30
2016,09,22,05,44,7.30
2016,09,22,05,45,7.30
2016,09,22,05,46,7.30
2016,09,22,05,47,7.30
2016,09,22,05,48,7.30
2016,09,22,05,49,7.30
2016,09,22,05,50,7.30
2016,09,22,05,51,7.30
2016,09,22,05,52,7.20
2016,09,22,05,53,7.20
2016,09,22,05,54,7.20
2016,09,22,05,55,7.10
2016,09,22,05,56,7.10
2016,09,22,05,57,7.10
2016,09,22,05,58,7.10
2016,09,22,05,59,7.10
2016,09,22,06,00,7.00
2016,09,22,06,01,7.00
2016,09,22,06,02,7.00
2016,09,22,06,03,7.00
2016,09,22,06,04,7.00
2016,09,22,06,05,7.00
2016,09,22,06,06,6.90
2016,09,22,06,07,6.90
2016,09,22,06,08,6.90
2016,09,22,06,09,6.90
2016,09,22,06,10,6.90
2016,09,22,06,11,6.90
2016,09,22,06,12,6.90
2016,09,22,06,13,6.90
2016,09,22,06,14,6.90
2016,09,22,06,15,6.90
2016,09,22,06,16,6.90
2016,09,22,06,17,6.90
2016,09,22,06,18,6.90
2016,09,22,06,19,6.80
2016,09,22,06,20,6.80
2016,09,22,06,21,6.80
2016,09,22,06,22,6.80
2016,09,22,06,23,6.80
2016,09,22,06,24,6.80
2016,09,22,06,25,6.80
2016,09,22,06,26,6.80
2016,09,22,06,27,6.80
2016,09,22,06,28,6.80
2016,09,22,06,29,6.80
2016,09,22,06,30,6.80
2016,09,22,06,31,6.70
2016,09,22,06,32,6.70
2016,09,22,06,33,6.70
2016,09,22,06,34,6.70
2016,09,22,06,35,6.70
2016,09,22,06,36,6.70
2016,09,22,06,37,6.70
2016,09,22,06,38,6.70
2016,09,22,06,39,6.70
2016,09,22,06,40,6.60
2016,09,22,06,41,6.60
2016,09,22,06,42,6.60
2016,09,22,06,43,6.60
2016,09,22,06,44,6.60
2016,09,22,06,45,6.60
2016,09,22,06,46,6.60
2016,09,22,06,47,6.60
2016,09,22,06,48,6.60
2016,09,22,06,49,6.60
2016,09,22,06,50,6.60
2016,09,22,06,51,6.60
2016,09,22,06,52,6.60
2016,09,22,06,53,6.50
2016,09,22,06,54,6.50
2016,09,22,06,55,6.50
2016,09,22,06,56,6.50
2016,09,22,06,57,6.40
2016,09,22,06,58,6.50
2016,09,22,06,59,6.50
2016,09,22,07,00,6.50
2016,09,22,07,01,6.50
2016,09,22,07,02,6.50
2016,09,22,07,03,6.50
2016,09,22,07,04,6.40
2016,09,22,07,05,6.40
2016,09,22,07,06,6.40
2016,09,22,07,07,6.40
2016,09,22,07,08,6.40
2016,09,22,07,09,6.40
2016,09,22,07,10,6.30
2016,09,22,07,11,6.40
2016,09,22,07,12,6.40
2016,09,22,07,13,6.40
2016,09,22,07,14,6.40
2016,09,22,07,15,6.40
2016,09,22,07,16,6.40
2016,09,22,07,17,6.40
2016,09,22,07,18,6.40
2016,09,22,07,19,6.40
2016,09,22,07,20,6.40
2016,09,22,07,21,6.40
2016,09,22,07,22,6.40
2016,09,22,07,23,6.40
2016,09,22,07,24,6.40
2016,09,22,07,25,6.30
2016,09,22,07,26,6.30
2016,09,22,07,27,6.30
2016,09,22,07,28,6.30
2016,09,22,07,29,6.30
2016,09,22,07,30,6.30
2016,09,22,07,31,6.30
2016,09,22,07,32,6.20
2016,09,22,07,33,6.20
2016,09,22,07,34,6.30
2016,09,22,07,35,6.30
2016,09,22,07,36,6.30
2016,09,22,07,37,6.30
2016,09,22,07,38,6.30
2016,09,22,07,39,6.30
2016,09,22,07,40,6.30
2016,09,22,07,41,6.30
2016,09,22,07,42,6.40
2016,09,22,07,43,6.40
2016,09,22,07,44,6.40
2016,09,22,07,45,6.40
2016,09,22,07,46,6.50
2016,09,22,07,47,6.50
2016,09,22,07,48,6.60
2016,09,22,07,49,6.60
2016,09,22,07,50,6.60
2016,09,22,07,51,6.60
2016,09,22,07,52,6.60
2016,09,22,07,53,6.60
2016,09,22,07,54,6.60
2016,09,22,07,55,6.50
2016,09,22,07,56,6.50
2016,09,22,07,57,6.40
2016,09,22,07,58,6.40
2016,09,22,07,59,6.30
2016,09,22,08,00,6.30
2016,09,22,08,01,6.30
2016,09,22,08,02,6.30
2016,09,22,08,03,6.30
2016,09,22,08,04,6.30
2016,09,22,08,05,6.30
2016,09,22,08,06,6.30
2016,09,22,08,07,6.40
2016,09,22,08,08,6.40
2016,09,22,08,09,6.40
2016,09,22,08,10,6.50
2016,09,22,08,11,6.50
2016,09,22,08,12,6.60
2016,09,22,08,13,6.60
2016,09,22,08,14,6.60
2016,09,22,08,15,6.70
2016,09,22,08,16,6.70
2016,09,22,08,17,6.70
2016,09,22,08,18,6.80
2016,09,22,08,19,6.80
2016,09,22,08,20,6.80
2016,09,22,08,21,6.80
2016,09,22,08,22,6.90
2016,09,22,08,23,6.90
2016,09,22,08,24,6.90
2016,09,22,08,25,6.90
2016,09,22,08,26,6.90
2016,09,22,08,27,7.00
2016,09,22,08,28,7.00
2016,09,22,08,29,7.00
2016,09,22,08,30,7.00
2016,09,22,08,31,7.00
2016,09,22,08,32,7.10
2016,09,22,08,33,7.10
2016,09,22,08,34,7.10
2016,09,22,08,35,7.10
2016,09,22,08,36,7.10
2016,09,22,08,37,7.10
2016,09,22,08,38,7.10
2016,09,22,08,39,7.10
2016,09,22,08,40,7.10
2016,09,22,08,41,7.10
2016,09,22,08,42,7.10
2016,09,22,08,43,7.10
2016,09,22,08,44,7.10
2016,09,22,08,45,7.10
2016,09,22,08,46,7.10
2016,09,22,08,47,7.10
2016,09,22,08,48,7.10
2016,09,22,08,49,7.10
2016,09,22,08,50,7.10
2016,09,22,08,51,7.10
2016,09,22,08,52,7.10
2016,09,22,08,53,7.10
2016,09,22,08,54,7.10
2016,09,22,08,55,7.20
2016,09,22,08,56,7.20
2016,09,22,08,57,7.20
2016,09,22,08,58,7.20
2016,09,22,08,59,7.20
2016,09,22,09,00,7.20
2016,09,22,09,01,7.20
2016,09,22,09,02,7.20
2016,09,22,09,03,7.20
2016,09,22,09,04,7.20
2016,09,22,09,05,7.20
2016,09,22,09,06,7.20
2016,09,22,09,07,7.20
2016,09,22,09,08,7.20
2016,09,22,09,09,7.20
2016,09,22,09,10,7.20
2016,09,22,09,11,7.20
2016,09,22,09,12,7.30
2016,09,22,09,13,7.30
2016,09,22,09,14,7.30
2016,09,22,09,15,7.30
2016,09,22,09,16,7.30
2016,09,22,09,17,7.30
2016,09,22,09,18,7.20
2016,09,22,09,19,7.20
2016,09,22,09,20,7.20
2016,09,22,09,21,7.20
2016,09,22,09,22,7.20
2016,09,22,09,23,7.20
2016,09,22,09,24,7.20
2016,09,22,09,25,7.20
2016,09,22,09,26,7.20
2016,09,22,09,27,7.20
2016,09,22,09,28,7.20
2016,09,22,09,29,7.20
2016,09,22,09,30,7.20
2016,09,22,09,31,7.20
2016,09,22,09,32,7.20
2016,09,22,09,33,7.20
2016,09,22,09,34,7.20
2016,09,22,09,35,7.20
2016,09,22,09,36,7.20
2016,09,22,09,37,7.20
2016,09,22,09,38,7.20
2016,09,22,09,39,7.20
2016,09,22,09,40,7.20
2016,09,22,09,41,7.20
2016,09,22,09,42,7.20
2016,09,22,09,43,7.20
2016,09,22,09,44,7.20
2016,09,22,09,45,7.20
2016,09,22,09,46,7.20
2016,09,22,09,47,7.20
2016,09,22,09,48,7.20
2016,09,22,09,49,7.20
2016,09,22,09,50,7.20
2016,09,22,09,51,7.20
2016,09,22,09,52,7.30
2016,09,22,09,53,7.30
2016,09,22,09,54,7.40
2016,09,22,09,55,7.40
2016,09,22,09,56,7.40
2016,09,22,09,57,7.40
2016,09,22,09,58,7.40
2016,09,22,09,59,7.40
2016,09,22,10,00,7.50
2016,09,22,10,01,7.50
2016,09,22,10,02,7.50
2016,09,22,10,03,7.50
2016,09,22,10,04,7.60
2016,09,22,10,05,7.60
2016,09,22,10,06,7.60
2016,09,22,10,07,7.60
2016,09,22,10,08,7.70
2016,09,22,10,09,7.70
2016,09,22,10,10,7.70
2016,09,22,10,11,7.70
2016,09,22,10,12,7.80
2016,09,22,10,13,7.80
2016,09,22,10,14,7.80
2016,09,22,10,15,7.90
2016,09,22,10,16,7.90
2016,09,22,10,17,7.90
2016,09,22,10,18,7.90
2016,09,22,10,19,7.90
2016,09,22,10,20,8.00
2016,09,22,10,21,8.10
2016,09,22,10,22,8.10
2016,09,22,10,23,8.20
2016,09,22,10,24,8.30
2016,09,22,10,25,8.30
2016,09,22,10,26,8.40
2016,09,22,10,27,8.40
2016,09,22,10,28,8.50
2016,09,22,10,29,8.60
2016,09,22,10,30,8.60
2016,09,22,10,31,8.70
2016,09,22,10,32,8.70
2016,09,22,10,33,8.80
2016,09,22,10,34,8.90
2016,09,22,10,35,9.00
2016,09,22,10,36,9.10
2016,09,22,10,37,9.20
2016,09,22,10,38,9.30
2016,09,22,10,39,9.30
2016,09,22,10,40,9.40
2016,09,22,10,41,9.50
2016,09,22,10,42,9.60
2016,09,22,10,43,9.70
2016,09,22,10,44,9.80
2016,09,22,10,45,9.90
2016,09,22,10,46,10.00
2016,09,22,10,47,10.10
2016,09,22,10,48,10.20
2016,09,22,10,49,10.30
2016,09,22,10,50,10.40
2016,09,22,10,51,10.50
2016,09,22,10,52,10.60
2016,09,22,10,53,10.70
2016,09,22,10,54,10.80
2016,09,22,10,55,10.90
2016,09,22,10,56,11.00
2016,09,22,10,57,11.10
2016,09,22,10,58,11.20
2016,09,22,10,59,11.30
2016,09,22,11,00,11.30
2016,09,22,11,01,11.40
2016,09,22,11,02,11.50
2016,09,22,11,03,11.70
2016,09,22,11,04,11.80
2016,09,22,11,05,11.90
2016,09,22,11,06,12.10
2016,09,22,11,07,12.20
2016,09,22,11,08,12.40
2016,09,22,11,09,12.50
2016,09,22,11,10,12.70
2016,09,22,11,11,12.90
2016,09,22,11,12,13.00
2016,09,22,11,13,13.10
2016,09,22,11,14,13.20
2016,09,22,11,15,13.30
2016,09,22,11,16,13.40
2016,09,22,11,17,13.30
2016,09,22,11,18,13.30
2016,09,22,11,19,13.40
2016,09,22,11,20,13.50
2016,09,22,11,21,13.60
2016,09,22,11,22,13.60
2016,09,22,11,23,13.70
2016,09,22,11,24,13.80
2016,09,22,11,25,13.80
2016,09,22,11,26,13.90
2016,09,22,11,27,13.90
2016,09,22,11,28,14.00
2016,09,22,11,29,14.10
2016,09,22,11,30,14.10
2016,09,22,11,31,14.20
2016,09,22,11,32,14.20
2016,09,22,11,33,14.30
2016,09,22,11,34,14.40
2016,09,22,11,35,14.40
2016,09,22,11,36,14.50
2016,09,22,11,37,14.60
2016,09,22,11,38,14.70
2016,09,22,11,39,14.80
2016,09,22,11,40,14.90
2016,09,22,11,41,14.90
2016,09,22,11,42,15.00
2016,09,22,11,43,15.10
2016,09,22,11,44,15.10
2016,09,22,11,45,15.20
2016,09,22,11,46,15.20
2016,09,22,11,47,15.20
2016,09,22,11,48,15.20
2016,09,22,11,49,15.20
2016,09,22,11,50,15.20
2016,09,22,11,51,15.30
2016,09,22,11,52,15.30
2016,09,22,11,53,15.40
2016,09,22,11,54,15.50
2016,09,22,11,55,15.60
2016,09,22,11,56,15.70
2016,09,22,11,57,15.90
2016,09,22,11,58,16.00
2016,09,22,11,59,16.10
2016,09,22,12,00,16.20
2016,09,22,12,01,16.30
2016,09,22,12,02,16.40
2016,09,22,12,03,16.50
2016,09,22,12,04,16.50
2016,09,22,12,05,16.60
2016,09,22,12,06,16.60
2016,09,22,12,07,16.70
2016,09,22,12,08,16.70
2016,09,22,12,09,16.70
2016,09,22,12,10,16.70
2016,09,22,12,11,16.70
2016,09,22,12,12,16.60
2016,09,22,12,13,16.60
2016,09,22,12,14,16.60
2016,09,22,12,15,16.60
2016,09,22,12,16,16.60
2016,09,22,12,17,16.60
2016,09,22,12,18,16.70
2016,09,22,12,19,16.80
2016,09,22,12,20,16.80
2016,09,22,12,21,16.90
2016,09,22,12,22,17.00
2016,09,22,12,23,17.00
2016,09,22,12,24,17.10
2016,09,22,12,25,17.10
2016,09,22,12,26,17.10
2016,09,22,12,27,17.20
2016,09,22,12,28,17.20
2016,09,22,12,29,17.30
2016,09,22,12,30,17.30
2016,09,22,12,31,17.30
2016,09,22,12,32,17.30
2016,09,22,12,33,17.30
2016,09,22,12,34,17.40
2016,09,22,12,35,17.40
2016,09,22,12,36,17.40
2016,09,22,12,37,17.40
2016,09,22,12,38,17.40
2016,09,22,12,39,17.40
2016,09,22,12,40,17.30
2016,09,22,12,41,17.10
2016,09,22,12,42,17.00
2016,09,22,12,43,16.90
2016,09,22,12,44,16.80
2016,09,22,12,45,16.70
2016,09,22,12,46,16.70
2016,09,22,12,47,16.70
2016,09,22,12,48,16.70
2016,09,22,12,49,16.70
2016,09,22,12,50,16.70
2016,09,22,12,51,16.70
2016,09,22,12,52,16.80
2016,09,22,12,53,16.80
2016,09,22,12,54,16.80
2016,09,22,12,55,16.90
2016,09,22,12,56,16.90
2016,09,22,12,57,16.90
2016,09,22,12,58,16.90
2016,09,22,12,59,17.00
2016,09,22,13,00,17.10
2016,09,22,13,01,17.20
2016,09,22,13,02,17.30
2016,09,22,13,03,17.30
2016,09,22,13,04,17.30
2016,09,22,13,05,17.30
2016,09,22,13,06,17.40
2016,09,22,13,07,17.30
2016,09,22,13,08,17.30
2016,09,22,13,09,17.30
2016,09,22,13,10,17.30
2016,09,22,13,11,17.30
2016,09,22,13,12,17.20
2016,09,22,13,13,17.20
2016,09,22,13,14,17.30
2016,09,22,13,15,17.30
2016,09,22,13,16,17.30
2016,09,22,13,17,17.40
2016,09,22,13,18,17.40
2016,09,22,13,19,17.50
2016,09,22,13,20,17.60
2016,09,22,13,21,17.60
2016,09,22,13,22,17.60
2016,09,22,13,23,17.70
2016,09,22,13,24,17.80
2016,09,22,13,25,17.80
2016,09,22,13,26,17.80
2016,09,22,13,27,17.80
2016,09,22,13,28,17.80
2016,09,22,13,29,17.80
2016,09,22,13,30,17.80
2016,09,22,13,31,17.80
2016,09,22,13,32,17.80
2016,09,22,13,33,17.90
2016,09,22,13,34,17.90
2016,09,22,13,35,17.90
2016,09,22,13,36,17.80
2016,09,22,13,37,17.80
2016,09,22,13,38,17.70
2016,09,22,13,39,17.70
2016,09,22,13,40,17.70
2016,09,22,13,41,17.70
2016,09,22,13,42,17.70
2016,09,22,13,43,17.70
2016,09,22,13,44,17.80
2016,09,22,13,45,17.90
2016,09,22,13,46,18.00
2016,09,22,13,47,18.10
2016,09,22,13,48,18.20
2016,09,22,13,49,18.20
2016,09,22,13,50,18.30
2016,09,22,13,51,18.30
2016,09,22,13,52,18.30
2016,09,22,13,53,18.20
2016,09,22,13,54,18.20
2016,09,22,13,55,18.10
2016,09,22,13,56,18.00
2016,09,22,13,57,17.90
2016,09,22,13,58,17.90
2016,09,22,13,59,17.90
2016,09,22,14,00,17.90
2016,09,22,14,01,17.90
2016,09,22,14,02,17.90
2016,09,22,14,03,17.90
2016,09,22,14,04,17.90
2016,09,22,14,05,17.90
2016,09,22,14,06,17.90
2016,09,22,14,07,17.90
2016,09,22,14,08,17.90
2016,09,22,14,09,17.90
2016,09,22,14,10,18.00
2016,09,22,14,11,18.00
2016,09,22,14,12,18.10
2016,09,22,14,13,18.10
2016,09,22,14,14,18.20
2016,09,22,14,15,18.20
2016,09,22,14,16,18.20
2016,09,22,14,17,18.30
2016,09,22,14,18,18.20
2016,09,22,14,19,18.20
2016,09,22,14,20,18.20
2016,09,22,14,21,18.20
2016,09,22,14,22,18.10
2016,09,22,14,23,18.10
2016,09,22,14,24,18.10
2016,09,22,14,25,18.10
2016,09,22,14,26,18.10
2016,09,22,14,27,18.10
2016,09,22,14,28,18.10
2016,09,22,14,29,18.10
2016,09,22,14,30,18.20
2016,09,22,14,31,18.20
2016,09,22,14,32,18.20
2016,09,22,14,33,18.20
2016,09,22,14,34,18.20
2016,09,22,14,35,18.20
2016,09,22,14,36,18.20
2016,09,22,14,37,18.20
2016,09,22,14,38,18.20
2016,09,22,14,39,18.20
2016,09,22,14,40,18.20
2016,09,22,14,41,18.10
2016,09,22,14,42,18.10
2016,09,22,14,43,18.00
2016,09,22,14,44,17.90
2016,09,22,14,45,17.90
2016,09,22,14,46,17.80
2016,09,22,14,47,17.80
2016,09,22,14,48,17.70
2016,09,22,14,49,17.70
2016,09,22,14,50,17.60
2016,09,22,14,51,17.60
2016,09,22,14,52,17.60
2016,09,22,14,53,17.50
2016,09,22,14,54,17.50
2016,09,22,14,55,17.40
2016,09,22,14,56,17.40
2016,09,22,14,57,17.30
2016,09,22,14,58,17.30
2016,09,22,14,59,17.30
2016,09,22,15,00,17.30
2016,09,22,15,01,17.30
2016,09,22,15,02,17.40
2016,09,22,15,03,17.40
2016,09,22,15,04,17.40
2016,09,22,15,05,17.40
2016,09,22,15,06,17.50
2016,09,22,15,07,17.50
2016,09,22,15,08,17.60
2016,09,22,15,09,17.60
2016,09,22,15,10,17.70
2016,09,22,15,11,17.70
2016,09,22,15,12,17.70
2016,09,22,15,13,17.70
2016,09,22,15,14,17.70
2016,09,22,15,15,17.70
2016,09,22,15,16,17.60
2016,09,22,15,17,17.60
2016,09,22,15,18,17.60
2016,09,22,15,19,17.60
2016,09,22,15,20,17.60
2016,09,22,15,21,17.60
2016,09,22,15,22,17.60
2016,09,22,15,23,17.60
2016,09,22,15,24,17.60
2016,09,22,15,25,17.60
2016,09,22,15,26,17.50
2016,09,22,15,27,17.50
2016,09,22,15,28,17.40
2016,09,22,15,29,17.30
2016,09,22,15,30,17.20
2016,09,22,15,31,17.10
2016,09,22,15,32,17.00
2016,09,22,15,33,16.90
2016,09,22,15,34,16.80
2016,09,22,15,35,16.80
2016,09,22,15,36,16.70
2016,09,22,15,37,16.70
2016,09,22,15,38,16.60
2016,09,22,15,39,16.60
2016,09,22,15,40,16.60
2016,09,22,15,41,16.60
2016,09,22,15,42,16.60
2016,09,22,15,43,16.60
2016,09,22,15,44,16.60
2016,09,22,15,45,16.70
2016,09,22,15,46,16.70
2016,09,22,15,47,16.70
2016,09,22,15,48,16.70
2016,09,22,15,49,16.80
2016,09,22,15,50,16.80
2016,09,22,15,51,16.80
2016,09,22,15,52,16.80
2016,09,22,15,53,16.80
2016,09,22,15,54,16.90
2016,09,22,15,55,16.90
2016,09,22,15,56,16.90
2016,09,22,15,57,16.90
2016,09,22,15,58,16.90
2016,09,22,15,59,16.90
2016,09,22,16,00,16.90
2016,09,22,16,01,16.90
2016,09,22,16,02,16.90
2016,09,22,16,03,17.00
2016,09,22,16,04,17.00
2016,09,22,16,05,17.00
2016,09,22,16,06,16.90
2016,09,22,16,07,16.90
2016,09,22,16,08,16.90
2016,09,22,16,09,16.90
2016,09,22,16,10,16.80
2016,09,22,16,11,16.80
2016,09,22,16,12,16.80
2016,09,22,16,13,16.70
2016,09,22,16,14,16.70
2016,09,22,16,15,16.70
2016,09,22,16,16,16.70
2016,09,22,16,17,16.70
2016,09,22,16,18,16.70
2016,09,22,16,19,16.70
2016,09,22,16,20,16.70
2016,09,22,16,21,16.70
2016,09,22,16,22,16.60
2016,09,22,16,23,16.60
2016,09,22,16,24,16.60
2016,09,22,16,25,16.60
2016,09,22,16,26,16.60
2016,09,22,16,27,16.60
2016,09,22,16,28,16.60
2016,09,22,16,29,16.60
2016,09,22,16,30,16.60
2016,09,22,16,31,16.60
2016,09,22,16,32,16.60
2016,09,22,16,33,16.50
2016,09,22,16,34,16.50
2016,09,22,16,35,16.50
2016,09,22,16,36,16.40
2016,09,22,16,37,16.40
2016,09,22,16,38,16.40
2016,09,22,16,39,16.40
2016,09,22,16,40,16.40
2016,09,22,16,41,16.40
2016,09,22,16,42,16.30
2016,09,22,16,43,16.30
2016,09,22,16,44,16.30
2016,09,22,16,45,16.30
2016,09,22,16,46,16.30
2016,09,22,16,47,16.30
2016,09,22,16,48,16.30
2016,09,22,16,49,16.30
2016,09,22,16,50,16.20
2016,09,22,16,51,16.20
2016,09,22,16,52,16.20
2016,09,22,16,53,16.20
2016,09,22,16,54,16.20
2016,09,22,16,55,16.20
2016,09,22,16,56,16.20
2016,09,22,16,57,16.20
2016,09,22,16,58,16.10
2016,09,22,16,59,16.10
2016,09,22,17,00,16.10
2016,09,22,17,01,16.10
2016,09,22,17,02,16.10
2016,09,22,17,03,16.10
2016,09,22,17,04,16.10
2016,09,22,17,05,16.10
2016,09,22,17,06,16.10
2016,09,22,17,07,16.10
2016,09,22,17,08,16.10
2016,09,22,17,09,16.10
2016,09,22,17,10,16.10
2016,09,22,17,11,16.00
2016,09,22,17,12,16.00
2016,09,22,17,13,16.00
2016,09,22,17,14,16.00
2016,09,22,17,15,15.90
2016,09,22,17,16,15.90
2016,09,22,17,17,15.90
2016,09,22,17,18,15.90
2016,09,22,17,19,15.90
2016,09,22,17,20,15.90
2016,09,22,17,21,15.90
2016,09,22,17,22,15.80
2016,09,22,17,23,15.80
2016,09,22,17,24,15.80
2016,09,22,17,25,15.80
2016,09,22,17,26,15.70
2016,09,22,17,27,15.70
2016,09,22,17,28,15.70
2016,09,22,17,29,15.70
2016,09,22,17,30,15.60
2016,09,22,17,31,15.60
2016,09,22,17,32,15.60
2016,09,22,17,33,15.60
2016,09,22,17,34,15.60
2016,09,22,17,35,15.60
2016,09,22,17,36,15.50
2016,09,22,17,37,15.50
2016,09,22,17,38,15.50
2016,09,22,17,39,15.40